sat.trackr.live / text

‹ back to catalog

STARLINK-37222

NORAD 68663 · 2026-077B

PAYLOAD ACTIVE UNKNOWN

§ Identity

Operator
Country
US
Launch date
2026-04-11
Launch site
AFWTR
Launch vehicle
Mass (kg)
RCS (m²)

Purposes: comms

External: N2YO · Heavens-Above · Gunter

§ Orbital elements

Epoch: 2026-09-19T10:04:39.213120Z

Period
93.91 min
Inclination
97.2849°
Eccentricity
0.0001792
Mean motion
15.33453342 rev/d
Perigee alt
464.3 km
Apogee alt
466.7 km
Semi-major
6,843.7 km
B*
5.8094e-4
RAAN
132.2721°
Arg perigee
92.5325°
Mean anomaly
267.6123°
Rev number
2,484

§ Raw data

STARLINK-372221 68663U 26077B   26262.41989830  .00018732  00000+0  58094-3 0  99902 68663  97.2849 132.2721 0001792  92.5325 267.6123 15.33453342 24841

JSON: /api/v1/satellites/68663 · /tle

For live sub-satellite position, see the globe view (requires WebGL).

§ Visibility from observer

Set your observer location to see the next 7 days of passes ≥ 10°. The values pass through the URL so the page stays shareable.

No JS? Fill the form by hand. The geolocation button needs JavaScript.